Regional Weather Roundup
Issued by NWS Little Rock, AR

Home | Current Version | Previous Version | Graphics & Text | Print | Product List | Glossary On
Versions: 1 2 3 4 5 6 7 8 9 10 11 12 13 14 15 16 17 18 19 20 21 22 23 24 25 26 27 28 29 30 31 32 33 34 35 36 37 38 39 40 41 42 43 44 45 46 47 48 49 50
000
ASUS44 KLZK 231005
RWRLZK

WEATHER ROUNDUP FOR ARKANSAS
NATIONAL WEATHER SERVICE LITTLE ROCK AR
500 AM CDT TUE SEP 23 2014

NOTE: "FAIR" INDICATES FEW OR NO CLOUDS BELOW 12,000 FEET WITH NO
SIGNIFICANT WEATHER AND/OR OBSTRUCTIONS TO VISIBILITY.

ARZ001-003-010-029-231100-
NORTHWEST ARKANSAS

CITY           SKY/WX    TMP DP  RH WIND       PRES   REMARKS
FAYETTEVILLE   CLEAR     47  47 100 CALM      30.24R
FORT SMITH     PTCLDY    57  54  89 N3        30.22R
HARRISON       PTCLDY    50  49  96 E5        30.25S
BENTONVILLE    CLEAR     54  48  82 SE3       30.24S
ROGERS         CLEAR     55  51  86 E6        30.25R
SILOAM SPGS    CLEAR     52  45  76 CALM      30.25R
HIGHFILL       CLEAR     50  49  96 CALM      30.24R
$$

ARZ004-005-016-231100-
NORTH CENTRAL ARKANSAS

CITY           SKY/WX    TMP DP  RH WIND       PRES   REMARKS
BATESVILLE     CLEAR     48  45  87 CALM      30.24S
FLIPPIN        CLOUDY    48  43  81 CALM      30.25S VSB 1
MTN HOME       CLEAR     52  51  97 NE3       30.24F
$$

ARZ040-041-231100-
WEST CENTRAL ARKANSAS

CITY           SKY/WX    TMP DP  RH WIND       PRES   REMARKS
MENA             N/A     50  48  93 CALM        N/A
MOUNT IDA      CLEAR     50  49  96 CALM      30.20S
$$

ARZ009-017-025-026-028-231100-
NORTHEAST ARKANSAS

CITY           SKY/WX    TMP DP  RH WIND       PRES   REMARKS
CORNING          N/A     48  48 100 NE7       30.26R
JONESBORO      CLEAR     53  48  83 NE6       30.23S
NEWPORT        CLEAR     49  48  96 NW6       30.25R
WALNUT RIDGE   CLEAR     50  46  87 N6        30.24S
BLYTHEVILLE    CLEAR     50  47  89 CALM      30.24R
$$

ARZ022-023-033-042-044-231100-
CENTRAL ARKANSAS

CITY           SKY/WX    TMP DP  RH WIND       PRES   REMARKS
LITTLE ROCK    CLEAR     54  48  80 NE5       30.21S
N LITTLE ROCK    N/A     56  50  81 NE7       30.21S
JACKSONVILLE   CLEAR     49  47  90 CALM      30.21S
SEARCY         CLEAR     54  47  77 N5        30.23S
HOT SPRINGS    CLEAR     55  52  89 CALM      30.22R
RUSSELLVILLE   PTCLDY    52  50  93 CALM      30.23R
CLINTON        FAIR      48  48 100 CALM      30.26R
$$

ARZ036-231100-
EAST ARKANSAS

CITY           SKY/WX    TMP DP  RH WIND       PRES   REMARKS
WEST MEMPHIS   CLEAR     49  47  93 NE6       30.20F
$$

ARZ050-053-066-070-073-231100-
SOUTHWEST ARKANSAS

CITY           SKY/WX    TMP DP  RH WIND       PRES   REMARKS
ARKADELPHIA    FAIR      53  52  97 CALM      30.21R
CAMDEN         CLEAR     48  46  93 CALM      30.19R FOG
TEXARKANA      CLEAR     53  53 100 NE3       30.20R
EL DORADO      CLEAR     53  51  93 N5        30.17S
DE QUEEN       CLEAR     53  53 100 CALM      30.20R FOG
$$

ARZ056-057-069-231100-
SOUTHEAST ARKANSAS

CITY           SKY/WX    TMP DP  RH WIND       PRES   REMARKS
PINE BLUFF     CLEAR     55  48  77 NE7       30.18F
STUTTGART      CLEAR     55  46  71 NE8       30.21S
MONTICELLO     CLEAR     55  50  83 E7        30.17S

$$





USA.gov is the U.S. government's official web portal to all federal, state and local government web resources and services.